COSMOS 1275 DEB, 12729

Orbit data source: Space-Track

COSMOS 1275 DEB, 12729 is space debris in LEO originally from a launch on Thu, 04 Jun 1981 UTC launched from the Plesetsk Missile And Space Complex (PKMTR). Debris objects in space refer to the collection of defunct objects orbiting the Earth. Examples of debris include non-operational satellites, rocket bodies, and fragments generated from explosions, collisions, or faulty payload assembly.

Loading next visibility...
Identifier
12729, 1981-053BW
Orbit
LEO
Country
Flag of CISCIS
Related business
Manufacturer
Unknown
Mission
Spacecraft
Bus & Motor
Unknown
Mass
Unknown
Launch date (UTC)
1981-06-04 (45 years ago)
Launch vehicle
Unknown
Launch site
Plesetsk Missile And Space Complex (PKMTR)
Object type
Payload
Rocket body
Debris
Shape & HBR
Unknown shape, 0.1 m
Radar Cross Section
Medium (>0.1 m² and <1 m²)

Expand to show TLE details & history
Last TLE update: 17 hours ago

TLE from 17 hours ago
0 COSMOS 1275 DEB
1 12729U 81053BW  26235.76711045  .00000334  00000-0  40442-3 0  9994
2 12729  83.0425  50.7524 0126528 309.2469  62.4907 13.60455105 88841
Epoch: 2026-08-23T18:24Z
TLE epoch observation values (Epoch: 2026-08-23T18:24:38.342Z)
Latitude
12.89849°
Longitude
164.12725°
Altitude
993.787 km
Speed
7.377 km/s
True Right ascension
03h 29m 22s
True Declination
12° 49' 35"
Sunlit
Object was in daylight at epoch
Visualization orbit readout
Latitude
Unknown
Longitude
Unknown
Altitude
Unknown
Speed
Unknown
Apparent Right ascension
Unknown
Apparent Declination
Unknown
Sunlit
N/A
Visualization observer readout
Local Sidereal Time
02:12:00
Azimuth
Unknown
Elevation
Unknown
Doppler factor
Unknown
Orbital elements
Apogee altitude
1,124.952 km
Perigee altitude
937.454 km
Semi-major axis
7,409.34 km
Eccentricity
0.01265
Inclination
83.0425°
RAAN
50.7524°
Arg. of periapsis
309.2469°
True anomaly
63.78602°
Mean anomaly
62.4907°
Eccentric anomaly
63.13742°
Mean motion
3.40309 °/min
Orbital period
105.79 mins
BSTAR
0.00040442
Loading maneuver chart data...
Computing Atmospheric mass density...

Documentation

Showing up to 5 results
|